Hourly Data Report for May 12, 2012

All times are specified in Local Standard Time (LST). Add 1 hour to adjust for Daylight Saving Time where and when it is observed.

LONDON A
ONTARIO

43°01'59.000" N
81°09'04.000" W
278.00 m
6144473
71623
YXU

Download Data

Hourly Data (May 2012)
Hourly Data Report for May 12, 2012
Temp Definition
°C
Dew Point Temp Definition
°C
Rel Hum Definition
%
Wind Dir Definition
10's deg

Wind Spd Definition
km/h
Visibility Definition
km
Stn Press Definition
kPa
Hmdx Definition


Wind Chill Definition


Weather Definition


TIME
00:00 14.3 5.2 54 25 16 10.0 98.83     LegendNANA
01:00 13.4 5.1 57 25 14 10.0 98.81     Clear
02:00 12.2 5.2 62 25 10 10.0 98.79     LegendNANA
03:00 11.9 4.9 62 24 12 10.0 98.80     LegendNANA
04:00 12.5 4.8 59 25 15 10.0 98.82     Mainly Clear
05:00 12.6 4.6 58 24 13 10.0 98.86     LegendNANA
06:00 14.8 5.1 52 23 14 10.0 98.91     LegendNANA
07:00 15.8 6.3 53 22 15 10.0 98.95     Mostly Cloudy
08:00 17.8 7.6 51 22 17 10.0 98.95     LegendNANA
09:00 20.0 7.8 45 22 16 10.0 98.92     LegendNANA
10:00 21.7 8.7 43 23 26 10.0 98.94     Cloudy
11:00 22.2 8.9 42 23 31 10.0 98.93     LegendNANA
12:00 22.9 10.5 45 22 25 10.0 98.92     LegendNANA
13:00 23.8 12.9 50 23 21 10.0 98.90 27   Cloudy
14:00 23.3 12.5 50 28 22 10.0 98.86 26   LegendNANA
15:00 22.9 12.7 52 28 20 10.0 98.84 26   LegendNANA
16:00 19.1 12.9 67 31 21 10.0 98.87     Cloudy
17:00 18.6 13.1 70 30 22 10.0 98.89     LegendNANA
18:00 17.9 13.5 75 31 15 10.0 98.89     LegendNANA
19:00 16.8 13.6 81 31 11 10.0 98.91     Cloudy
20:00 15.5 13.4 87 32 10 10.0 98.90     LegendNANA
21:00 14.4 11.9 85 34 11 10.0 98.97     LegendNANA
22:00 13.0 10.9 87 35 10 10.0 99.00     Rain Showers
23:00 12.3 11.2 93   0 10.0 98.99     LegendNANA

Notes on Data Quality.

Legend

  • E = Estimated
  • M = Missing
  • NA = Not Available
Date modified: